Preview of NWS' New Version of Forecast
This preview is not operational and should not be used for support decisions.

Regional Weather Roundup (RWR)

Issued by National Weather Service (NWS)

                            
000
ASUS45 KBOU 190310
RWRCO 

WEATHER ROUNDUP FOR COLORADO
NATIONAL WEATHER SERVICE DENVER/BOULDER CO
800 PM MST MON FEB 18 2019

NOTE: "FAIR" INDICATES FEW OR NO CLOUDS BELOW 12000 FEET WITH NO
SIGNIFICANT WEATHER AND/OR OBSTRUCTIONS TO VISIBILITY.

COZ001>005-013-030-031-190400-
...NORTHWEST COLORADO...
  
CITY           SKY/WX    TMP DP  RH WIND       PRES   REMARKS
CRAIG          LGT SNOW  15  11  83 NE3       29.87S FOG              
HAYDEN         LGT SNOW  13  11  92 W5        29.86S FOG     WCI   5  
MEEKER         LGT SNOW  18  12  77 CALM      29.83R VSB 1            
RANGELY        LGT SNOW  19  12  74 E10G16    29.91R WCI   8          
RABBIT EARS PA LGT SNOW   7   5  92 S6        29.70R WCI  -3          
STEAMBOAT SPGS CLOUDY    13  10  89 CALM      29.82S                  
WALDEN         CLOUDY    10   5  79 W5        29.79F WCI   2          
$$

COZ006>008-011-190400-
...WEST CENTRAL VALLEYS...
  
CITY           SKY/WX    TMP DP  RH WIND       PRES   REMARKS
GRAND JUNCTION MOCLDY    28  27  96 CALM      29.84R                  
MONTROSE       FAIR      25  22  88 NE3       29.84F                  
EAGLE          FLURRIES  25  17  72 NW5       29.81R WCI  19          
RIFLE          MOCLDY    26  20  77 NW7       29.82S WCI  18          
DELTA          FAIR      28  24  85 NE5       29.85S WCI  23          
NUCLA          CLOUDY    28  21  74 CALM      29.86S                  
$$

COZ017>023-064>068-190400-
...SOUTHWEST COLORADO...
  
CITY           SKY/WX    TMP DP  RH WIND       PRES   REMARKS
DURANGO        LGT SNOW  22  22 100 E6        29.83S FOG     WCI  14  
CORTEZ         CLOUDY    27  20  75 SW3       29.84R                  
PAGOSA SPRINGS LGT SNOW  23  23 100 CALM      29.81S VSB 1            
TELLURIDE      CLOUDY    18  10  73 CALM      29.77R                  
WOLF CREEK PAS CLOUDY     7   5  92 S15G21    29.74S WCI -11          
$$

COZ009-010-012-014-032>034-037-058>063-190400-
...CENTRAL COLORADO...
  
CITY           SKY/WX    TMP DP  RH WIND       PRES   REMARKS
ASPEN          CLOUDY    23  10  57 NW3       29.74R                  
BUENA VISTA    LGT SNOW  12   9  86 SE10      29.84R WCI  -1          
COPPER MTN     CLOUDY    10   1  67 SE13G18   29.67F HAZE    WCI  -5  
BERTHOUD PASS  CLOUDY     0  -9  65 S24G32    29.67S WCI -24          
COTTONWOOD PAS SNOW      12   9  85 CALM      29.76S VSB 1/2          
GUNNISON       FLURRIES  15  13  91 W8        29.79R WCI   4          
GRANBY         MOCLDY    13   4  67 CALM      29.77S                  
KREMMLING      CLOUDY    12   7  79 CALM      29.81R                  
LEADVILLE      LGT SNOW   8   6  92 S8        29.72S FOG     WCI  -4  
MONARCH PASS   CLOUDY     9   3  78 MISG      29.80S                  
SALIDA         CLOUDY    12   9  87 SE12G20   29.94R VSB 3/4 WCI  -2  
SUNLIGHT       SNOW      10   7  85 CALM      29.75S VSB 1/2          
WILKERSON PASS LGT SNOW   7   3  85 SW8       29.76S WCI  -6          
$$

COZ069>075-190400-
...SAN LUIS VALLEY/SANGRE DE CRISTO MOUNTAINS...
  
CITY           SKY/WX    TMP DP  RH WIND       PRES   REMARKS
ALAMOSA        CLOUDY    23  15  71 S16G24    29.82  WCI  10          
DEL NORTE      CLOUDY    19  17  91 E5        29.80F WCI  12          
LA VETA PASS   NOT AVBL                                               
SAGUACHE       LGT SNOW  23  18  80 CALM      29.81S                  
$$

COZ035-036-038>040-190400-
...NORTHERN COLORADO FRONT RANGE...
  
CITY           SKY/WX    TMP DP  RH WIND       PRES   REMARKS
DENVER INTL AP FLURRIES  16  13  88 W10       30.00R WCI   4          
AURORA         FLURRIES  15  14  94 NW8       30.00R WCI   4          
FRONT RANGE AP FLURRIES  19  16  86 W9        30.00S WCI   9          
ERIE MUNI ARPT FLURRIES  17  13  85 N7        30.09S WCI   7          
BOULDER MUN AP CLOUDY    18  10  73 N5        30.02F WCI  11          
CENTENNIAL     LGT SNOW  15  10  80 NW3       29.98R                  
BROOMFIELD     CLOUDY    16  12  86 NW12      30.00F FOG     WCI   3  
FORT COLLINS   FLURRIES  16  12  84 E7        30.05F WCI   6          
LONGMONT       CLOUDY    19  11  70 NE6       30.06S HAZE    WCI  11  
$$

COZ041-046-047-076>085-087-088-190400-
...PIKES PEAK/PALMER DIVIDE AND SOUTHERN FOOTHILLS...
  
CITY           SKY/WX    TMP DP  RH WIND       PRES   REMARKS
COLO. SPRINGS  LGT SNOW   8   5  87 SE9       30.02S FOG     WCI  -5  
A. F. ACADEMY  CLOUDY     7   1  78 SE13      29.97S WCI  -9          
SCHRIEVER AFB  NOT AVBL                                               
CHEYENNE MTN   LGT SNOW   3   1  89 SE9       29.90R WCI -11          
ELLICOTT       NOT AVBL                                               
FALCON         FLURRIES   5   2  86 S8G17     29.98S WCI  -8          
FORT CARSON    CLOUDY     9   5  86 S10       30.02F WCI  -5          
LIMON          FLURRIES   8   5  87 S12       30.08R WCI  -7          
MONUMENT HILL  FLURRIES   5   1  85 S14G22    29.95R WCI -12          
CANON CITY     LGT SNOW  14  10  85 NE7       30.07S WCI   4          
WALSENBURG     NOT AVBL                                               
TRINIDAD       CLOUDY    10   8  92 N5        30.03S WCI   2          
$$

COZ042>045-048>051-090-091-190400-
...NORTHEAST COLORADO...
  
CITY           SKY/WX    TMP DP  RH WIND       PRES   REMARKS
GREELEY ARPT   CLOUDY    18   7  62 SE15      30.07S WCI   4          
AKRON          FLURRIES  14   8  77 S9        30.12S WCI   2          
BURLINGTON     LGT SNOW  15  11  83 SE15      30.19F FOG     WCI   0  
WRAY           LGT SNOW  18  14  86 SE10      30.24S WCI   6          
YUMA           FLURRIES  14  10  85 SE10      30.18S WCI   1          
STERLING       CLOUDY    16  10  79 SE13G18   30.17R WCI   2          
HOLYOKE        LGT SNOW  14  10  85 E10       30.24S WCI   1          
FORT MORGAN      N/A     16   8  70 SE12      30.11S WCI   3          
$$

COZ086-089-092>099-190400-
...SOUTHEAST COLORADO...
  
CITY           SKY/WX    TMP DP  RH WIND       PRES   REMARKS
PUEBLO         LGT SNOW  13   9  84 E10       30.12S FOG     WCI   0  
LA JUNTA       CLOUDY    15  11  83 E13       30.15R WCI   1          
LAMAR          CLOUDY    15  10  80 E10       30.21S WCI   2          
SPRINGFIELD      N/A     15  13  91 SE9       30.17R WCI   3          
$$